Regional Weather Roundup
Issued by NWS

Home | Current Version | Previous Version | Graphics & Text | Print | Product List | Glossary On
Versions: 1 2 3 4 5 6 7 8 9 10 11 12 13 14 15 16 17 18 19 20 21 22 23 24 25 26 27 28 29 30 31 32 33 34 35 36 37 38 39 40 41 42 43 44 45 46 47 48 49 50
000
ASUS43 KLOT 172000
RWRIL

ILLINOIS REGIONAL WEATHER ROUNDUP
NATIONAL WEATHER SERVICE CHICAGO/ROMEOVILLE IL
300 PM CDT WED SEP 17 2014

NOTE: "FAIR" INDICATES FEW OR NO CLOUDS BELOW 12,000 FEET WITH NO
SIGNIFICANT WEATHER AND/OR OBSTRUCTIONS TO VISIBILITY.

* THESE STATIONS ARE NOT UNDER NWS QUALITY CONTROL. THEY ALSO MAY NOT
  REPORT WEATHER SUCH AS PRECIPITATION OR FOG.

ILZ001-002-007-009-015-016-024-172100-
NORTHWEST ILLINOIS

CITY           SKY/WX    TMP DP  RH WIND       PRES   REMARKS
MOLINE         SUNNY     69  51  52 E3        29.98F
STERLING*      MOSUNNY   72  52  49 CALM      29.98F
$$

ILZ003-004-008-010-011-017-018-172100-
NORTH CENTRAL ILLINOIS

CITY           SKY/WX    TMP DP  RH WIND       PRES   REMARKS
ROCKFORD       MOSUNNY   70  49  47 NW7       30.00F
$$

ILZ005-006-012>014-019>023-172100-
NORTHEAST ILLINOIS

CITY           SKY/WX    TMP DP  RH WIND       PRES   REMARKS
CHICAGO-OHARE  MOSUNNY   68  44  42 SW8       29.99F
CHICAGO-MIDWAY MOSUNNY   70  47  43 NW7       29.99F
AURORA         SUNNY     70  46  42 VRB5      29.99F
WAUKEGAN       MOSUNNY   66  49  54 E8        29.99S
DUPAGE AIRPORT SUNNY     70  47  43 VRB3      29.99F
WHEELING       SUNNY     69  45  41 SW7       30.01S
NORTHERLY ISL    N/A     64  50  60 E6          N/A
$$

LMZ740>746-172100-
SOUTHERN LAKE MICHIGAN

STATION/POSITION SKY/WX   TEMP    WIND        PRES    VSBY  WAVE
                          AIR SEA DIR/SP/G                  HT/PER
                          (F)     (DEG/KT/KT) (MB)    (MI)  (FT/S)
SOUTHERN BUOY              62 65  230/  6/  8 1016.5F         1/ 4
WAUKEGAN HARBOR            66     140/  9/ 10   N/A
HARRISON CRIB              62      80/  8/  9   N/A
BURNHAM HARBOR             63      60/  7/  8   N/A
CALUMET HARBOR             63      50/  9/ 10 1014.6F
MICHIGAN CITY              64     320/  8/ 10   N/A
MICHIGAN CITY 6N           63 66   10/  4/  6   N/A           1
ST. JOSEPH                 62 67  280/  6/ 10   N/A           1/ 2
$$

ILZ025>027-034>036-040-047-049-050-058-095>099-172100-
WEST-CENTRAL ILLINOIS

CITY           SKY/WX    TMP DP  RH WIND       PRES   REMARKS
QUINCY         CLOUDY    67  57  70 SE8       29.95F
MACOMB*        CLOUDY    66  54  65 S6        30.00F
$$

ILZ028>032-037-038-041>044-048-051>054-059>061-172100-
CENTRAL ILLINOIS

CITY           SKY/WX    TMP DP  RH WIND       PRES   REMARKS
DECATUR        CLOUDY    67  51  56 SW7       30.00F
PEORIA         CLOUDY    67  51  56 SW6       29.99F
SPRINGFIELD    PTSUNNY   67  52  58 SE8       29.98F
TAYLORVILLE    NOT AVBL
$$

ILZ033-039-045-046-055>057-062-063-172100-
EAST-CENTRAL ILLINOIS

CITY           SKY/WX    TMP DP  RH WIND       PRES   REMARKS
CHAMPAIGN      MOSUNNY   68  50  52 S6        30.00F
MATTOON        PTSUNNY   65  51  60 SE6       29.99F
$$

ILZ079-100>102-172100-
SOUTHWEST ILLINOIS

CITY           SKY/WX    TMP DP  RH WIND       PRES   REMARKS
ALTON          CLOUDY    63  57  82 E9        29.98F
BELLEVILLE     CLOUDY    65  57  74 NE8       29.97S
CAHOKIA*       PTSUNNY   68  57  68 SE6       29.97S
$$

ILZ064>066-069>071-074>076-080>082-084>086-088>090-092>094-172100-
SOUTH-CENTRAL ILLINOIS

CITY           SKY/WX    TMP DP  RH WIND       PRES   REMARKS
CARBONDALE     MOSUNNY   70  55  59 VRB7      29.95F
MARION         PTSUNNY   72  55  56 E7        29.97F
MT. VERNON     CLOUDY    63  54  72 NE5       29.99F
$$

ILZ067-068-072-073-078-083-087-091-172100-
SOUTHEAST ILLINOIS

CITY           SKY/WX    TMP DP  RH WIND       PRES   REMARKS
LAWRENCEVILLE  PTSUNNY   68  51  54 E5        30.00F
$$

ABBREVIATIONS USED IN REMARKS
   TC - TEMPERATURE IN CELSIUS
  WCI - WIND CHILL INDEX
   HX - HEAT INDEX
  VSB - VISIBILITY
$$




USA.gov is the U.S. government's official web portal to all federal, state and local government web resources and services.